Weather Roundup
Issued by NWS

Home | Current Version | Previous Version | Text Only | Print | Product List | Glossary On
Versions: 1 2 3 4 5 6 7 8 9 10 11 12 13 14 15 16 17 18 19 20 21 22 23 24 25 26 27 28 29 30 31 32 33 34 35 36 37 38 39 40 41 42 43 44 45 46 47 48 49 50
000
NZUS93 KARX 231759
HRRWXR

CURRENT HOURLY OBSERVATIONS ACROSS
MUCH OF THE UPPER MISSISSIPPI VALLEY
NATIONAL WEATHER SERVICE LA CROSSE WI
1200 PM CST THU FEB 23 2017


...SOUTHEAST MINNESOTA...


CITY           SKY/WX    TMP DP  RH WIND       PRES   REMARKS
ROCHESTER      CLOUDY    36  31  82 NE16      29.85F WCI  26
ROCHESTER/MAYO CLOUDY    37  31  80 NE7       29.87F WCI  31
WINONA         CLOUDY    37  30  75 NE8       29.89F WCI  31
AUSTIN         CLOUDY    37  32  81 NE15G22   29.81F WCI  28
ALBERT LEA     CLOUDY    36  32  87 NE18      29.83F WCI  25
DODGE CENTER   NOT AVBL
PRESTON        CLOUDY    37  31  81 NE15      29.84F WCI  28
OWATONNA       CLOUDY    36  28  75 NE9       29.87F WCI  29
FARIBAULT      CLOUDY    34  28  80 N9        29.90R WCI  26
$$

...ELSEWHERE IN MINNESOTA...


CITY           SKY/WX    TMP DP  RH WIND       PRES   REMARKS
MINNEAPOLIS    CLOUDY    37  23  56 NE12G21   29.92F WCI  29
INTNL FALLS    MOSUNNY   23  10  57 NW12      29.99F WCI  12
DULUTH         CLOUDY    26  21  81 N12       29.93S WCI  16
RED WING       CLOUDY    39  27  60 NE10      29.89F WCI  32
REDWOOD FALLS  PTSUNNY   33  24  69 N9        29.93R WCI  25
MANKATO          N/A     34  28  79 NE9       29.89F WCI  27
WORTHINGTON    CLOUDY    31  26  82 N20       29.86S WCI  19
FAIRMONT       CLOUDY    33  29  85 NE13      29.84F WCI  24
$$

...SOUTHWEST WISCONSIN...


CITY           SKY/WX    TMP DP  RH WIND       PRES   REMARKS
LA CROSSE      CLOUDY    43  31  62 NE10      29.87S
PRAIRIE DU CHI CLOUDY    44  31  60 N9G18     29.81F
BOSCOBEL       CLOUDY    46  32  58 NE8G20    29.80F
LONE ROCK      NOT AVBL
PLATTEVILLE    CLOUDY    44  37  76 NE13G18   29.81R
FORT MC COY    PTSUNNY   41  31  68 N9        29.88F
MAUSTON-NEW LI PTCLDY    42  31  67 N8        29.85S
VIROQUA        FAIR      42  33  70 NE14      29.83F
WIS DELLS      CLOUDY    42  31  64 N9        29.85R
$$

...ELSEWHERE IN WISCONSIN...


CITY           SKY/WX    TMP DP  RH WIND       PRES   REMARKS
MILWAUKEE      CLOUDY    41  33  73 NE10      29.88R
MADISON        CLOUDY    43  35  73 NE8       29.86R
GREEN BAY      CLOUDY    40  32  73 N12       29.88F WCI  33
EAU CLAIRE     NOT AVBL
BLACK RVR FLS  CLOUDY    43  28  56 N7        29.87F
MEDFORD        PTSUNNY   36  28  72 N6        29.88S WCI  31
WAUSAU         MOSUNNY   39  26  59 VRB7      29.87F WCI  34
WIS RAPIDS     MOSUNNY   43  30  60 N10       29.87F
MARSHFIELD     SUNNY     41  29  62 NE9       29.86F
RICE LAKE      MOSUNNY   34  27  73 CALM      29.94S
$$

...NORTHEAST IOWA...


CITY           SKY/WX    TMP DP  RH WIND       PRES   REMARKS
WATERLOO       CLOUDY    44  34  67 NE14      29.81F
DUBUQUE        CLOUDY    43  35  73 NE14      29.81S
DECORAH        CLOUDY    43  32  65 NE7G21    29.79F
MASON CITY     CLOUDY    37  32  82 NE17      29.83F WCI  27
CHARLES CITY   CLOUDY    41  37  87 NE13G21   29.82F
OELWEIN        CLOUDY    43  36  75 NE13      29.82S
$$

...ELSEWHERE IN IOWA...


CITY           SKY/WX    TMP DP  RH WIND       PRES   REMARKS
DES MOINES     CLOUDY    43  36  76 E16G24    29.73F
IOWA CITY      CLOUDY    47  37  68 E8        29.81F
FORT DODGE     CLOUDY    37  30  75 NE14G21   29.80F WCI  29
MARSHALLTOWN   CLOUDY    43  37  79 NE15      29.76F
CEDAR RAPIDS   CLOUDY    44  37  76 E10       29.79F
$$

...NORTHERN ILLINOIS...


CITY           SKY/WX    TMP DP  RH WIND       PRES   REMARKS
CHICAGO-OHARE  CLOUDY    44  37  76 NE15      29.82F
CHICAGO-MIDWAY CLOUDY    46  38  73 NE14      29.82F
MOLINE         CLOUDY    48  41  76 N9        29.78F
ROCKFORD       CLOUDY    47  39  74 NE10      29.81F
PEORIA         CLOUDY    51  45  79 NE8       29.76F
$$

NOTE: "FAIR" INDICATES FEW OR NO CLOUDS BELOW 12,000 FEET WITH NO
SIGNIFICANT WEATHER AND/OR OBSTRUCTIONS TO VISIBILITY. WIND
SPEEDS ARE IN MILES-PER-HOUR.




USA.gov is the U.S. government's official web portal to all federal, state and local government web resources and services.